Location: Unspecified
(0.0000°N, 0.0000°E)
Time: 22:56:03
(UTC+00:00)

Vanguard 2 Rocket - Pass Details

Date: 13 December 2017
Orbit: 553 x 3328 km, 32.9° (Epoch: 23 April)

Event Time Altitude Azimuth Distance (km) Brightness Sun altitude
Rises 06:56:48 0° 265° (W) 5,664 10.4 14.4°
Reaches altitude 10° 07:04:43 10° 236° (SW) 3,816 9.8 16.2°
Maximum altitude 07:07:25 11° 219° (SW) 3,400 9.7 16.8°
Drops below altitude 10° 07:09:48 10° 202° (SSW) 3,230 9.8 17.3°
Sets 07:14:45 0° 168° (SSE) 3,621 10.5 18.5°
